This demonstration page uses our WeatherBlox Daily Observations layout. Learn more.

Left ArrowRight Arrow

53.62937, 11.41316

Hourly Observations for June 13, 2015

Temp ( °F °C ) Dew Point ( °F °C ) Humidity (%) Winds ( mph kmh ) Pressure ( in mb ) Visibility ( mi km ) Precip ( " mm )
6:20 am 06:20 Mostly Sunny 61 16 54 12 77 77 ENE 6 9 29.80 1009 7 11 N/A
6:50 am 06:50 Mostly Sunny 63 17 55 13 77 77 ENE 6 9 29.80 1009 7 11 N/A
7:20 am 07:20 Mostly Sunny 64 18 57 14 78 78 ENE 5 7 29.80 1009 7 11 N/A
7:50 am 07:50 Mostly Sunny 68 20 57 14 69 69 E 5 7 29.80 1009 7 11 N/A
8:20 am 08:20 Mostly Sunny 70 21 59 15 69 69 ENE 6 9 29.80 1009 7 11 N/A
8:50 am 08:50 Mostly Sunny 75 24 61 16 61 61 ESE 7 11 29.80 1009 7 11 N/A
9:20 am 09:20 Mostly Sunny 77 25 63 17 61 61 SE 9 15 29.77 1008 7 11 N/A
9:50 am 09:50 Mostly Sunny 77 25 61 16 57 57 SSE 9 15 29.77 1008 7 11 N/A
10:20 am 10:20 Mostly Sunny 81 27 63 17 54 54 SSE 12 19 29.77 1008 7 11 N/A
10:50 am 10:50 Mostly Sunny 79 26 59 15 51 51 SSE 12 19 29.77 1008 7 11 N/A
11:20 am 11:20 Mostly Sunny 81 27 61 16 51 51 S 9 15 29.77 1008 7 11 N/A
11:50 am 11:50 Mostly Sunny 81 27 61 16 51 51 S 10 17 29.77 1008 7 11 N/A
12:20 pm 12:20 Mostly Sunny 82 28 59 15 45 45 S 12 19 29.74 1007 7 11 N/A
12:50 pm 12:50 Mostly Sunny 82 28 55 13 40 40 SSE 13 20 29.74 1007 7 11 N/A
1:20 pm 13:20 Mostly Sunny 81 27 61 16 51 51 S 12 19 29.74 1007 7 11 N/A
1:50 pm 13:50 Mostly Sunny 81 27 63 17 54 54 S 10 17 29.74 1007 7 11 N/A
2:20 pm 14:20 Mostly Sunny 79 26 61 16 54 54 S 9 15 29.74 1007 7 11 N/A
2:29 pm 14:29 Mostly Cloudy with Light Rain 73 23 63 17 69 69 SW 23 37 29.74 1007 30 48 N/A
2:40 pm 14:40 Mostly Cloudy with Rain 70 21 66 19 88 88 SW 18 30 29.77 1008 4 6 N/A
2:50 pm 14:50 Cloudy with Light Rain 70 21 66 19 88 88 SW 14 22 29.74 1007 5 8 N/A
3:20 pm 15:20 Mostly Cloudy with Light Rain 72 22 68 20 88 88 S 6 9 29.74 1007 30 48 N/A
3:50 pm 15:50 Mostly Sunny 73 23 66 19 78 78 S 3 6 29.71 1006 7 11 N/A
4:20 pm 16:20 Mostly Sunny 75 24 66 19 74 74 SSE 8 13 29.71 1006 7 11 N/A
4:50 pm 16:50 Mostly Sunny 77 25 64 18 65 65 S 12 19 29.71 1006 7 11 N/A
5:20 pm 17:20 Mostly Sunny 75 24 64 18 69 69 S 7 11 29.71 1006 7 11 N/A
5:50 pm 17:50 Mostly Sunny 75 24 63 17 65 65 S 8 13 29.68 1005 7 11 N/A
6:20 pm 18:20 Mostly Sunny 75 24 63 17 65 65 S 8 13 29.71 1006 7 11 N/A
6:50 pm 18:50 Mostly Sunny 73 23 64 18 74 74 S 7 11 29.68 1005 7 11 N/A

Powered by AerisWeather